FENGYUN 1C DEB, 31049

Orbit data source: Space-Track

FENGYUN 1C DEB, 31049 is space debris in SSO originally from a launch on Mon, 10 May 1999 UTC launched from the Taiyaun Space Center, China (TSC). Fengyun 1C debris stems from the Chinese weather satellite Fengyun-1C, which was intentionally destroyed by a Chinese anti-satellite missile in 2007. This event dramatically increased the amount of space debris, with thousands of trackable fragments posing hazards to satellites and human spaceflight. The Fengyun 1C debris cloud has become a focal point in discussions about space sustainability and the need for international regulations to prevent the creation of new debris.

Loading next visibility...
Identifier
31049, 1999-025BET
Orbit
SSO
Country
Flag of CNCN / PRC
Related business
Manufacturer
Unknown
Mission
Spacecraft
Bus & Motor
Unknown
Mass
Unknown
Launch date (UTC)
1999-05-10 (27 years ago)
Launch vehicle
Unknown
Launch site
Taiyaun Space Center, China (TSC)
Object type
Payload
Rocket body
Debris
Shape & HBR
Unknown shape, 0.1 m
Radar Cross Section
Small (<0.1 m²)

Expand to show TLE details & history
Last TLE update: 1 week ago

TLE from 1 week ago
0 FENGYUN 1C DEB
1 31049U 99025BET 26063.24907921  .00000849  00000-0  55433-3 0  9997
2 31049  98.8030  76.4495 0050250 261.3752  98.1721 14.04356979622590
Epoch: 2026-03-04T05:58Z
TLE epoch observation values (Epoch: 2026-03-04T05:58:40.443Z)
Latitude
0.00001°
Longitude
-175.23551°
Altitude
887.001 km
Speed
7.406 km/s
True Right ascension
05h 05m 47s
True Declination
0° 00' 00"
Sunlit
Object was in daylight at epoch
Visualization orbit readout
Latitude
Unknown
Longitude
Unknown
Altitude
Unknown
Speed
Unknown
Apparent Right ascension
Unknown
Apparent Declination
Unknown
Sunlit
N/A
Visualization observer readout
Local Sidereal Time
02:17:42
Azimuth
Unknown
Elevation
Unknown
Doppler factor
Unknown
Orbital elements
Apogee altitude
912.382 km
Perigee altitude
839.479 km
Semi-major axis
7,254.068 km
Eccentricity
0.00503
Inclination
98.803°
RAAN
76.4495°
Arg. of periapsis
261.3752°
True anomaly
98.74156°
Mean anomaly
98.1721°
Eccentric anomaly
98.45688°
Mean motion
3.51294 °/min
Orbital period
102.48 mins
BSTAR
0.00055433
Loading maneuver chart data...
Computing Atmospheric mass density...

Documentation

Showing up to 5 results
|